一网星座-0450星 (ONEWEB-0450 )

导读 | 星芒AI

ONEWE-0450 是 OneWeb 卫星通信星座计划中的一颗低轨通信卫星,旨在为全球提供高速互联网接入。该卫星采用模块化设计,部署在约 1200 公里的近地轨道,支持高带宽数据传输。作为 OneWeb 扩展其全球覆盖网络的一部分,该卫星于 2023 年由 Arianespace 用织女星火箭发射。其任务是增强偏远和农村地区的网络连接,推动数字包容性。ONEWE-0450 体现了 OneWeb 在构建全球卫星互联网基础设施方面的持续努力。

基本信息
目录编号:
50504
目录名称:
ONEWEB-0450
国际标识:
2021-132AM
轨道中心:
EARTH
卫星名称:
一网星座-0450星
卫星全名:
一网星座-0450星 (ONEWEB-0450 )
卫星状态:
在轨 (已飞行1403 天)
发射日期:
2021-12-27 UTC
国别 :
英国 (GB)
星等 :
--
轨道信息
数据来源 国际轨道数据
星历时间: 2025-10-29T20:34:44+0800
16小时前
查看轨道信息
半长轴: 7567.887km
偏心率: 0.0002058
轨道倾角: 87.923°
近地点辐角 105.302°
升交点赤经 21.282°
平近点角 254.834°
近地点: 1188.194km
远地点: 1191.31km
周期: 109.200分钟
每日圈数: 13.186843
详细信息
平衡模式:
三轴稳定
覆盖范围:
全球
运营商:
一网卫星公司
运营商所在国:
英国
制造商(研发单位):
一网卫星公司
制造商所在国:
英国
使用方式:
暂无
卫星简介
OneWeb卫星网络由648颗重约125公斤的微型卫星组成,运行在1200公里的轨道上。 每颗卫星都能够提供至少每秒8千兆位的吞吐量,以使用其高吞吐量的Ku频段有效载荷为家庭和移动平台提供互联网接入。该卫星仍在工作。
2D轨道图
3D轨道图
轨道高度分析图
轨道倾角分析图
轨道综合分析图
查看轨道综合分析图